Regional Weather Roundup
Issued by NWS

Home | Current Version | Previous Version | Text Only | Print | Product List | Glossary On
Versions: 1 2 3 4 5 6 7 8 9 10 11 12 13 14 15 16 17 18 19 20 21 22 23 24 25 26 27 28 29 30 31 32 33 34 35 36 37 38 39 40 41 42 43 44 45 46 47 48 49 50
430
ASUS42 KKEY 201210
RWRKEY

FLORIDA REGIONAL WEATHER ROUNDUP FOR THE FLORIDA KEYS
NATIONAL WEATHER SERVICE KEY WEST FLORIDA
700 AM EST TUE FEB 20 2018

...SOUTH FLORIDA AND THE KEYS...

CITY           SKY/WX    TMP DP  RH WIND       PRES   REMARKS
FORT MYERS     CLOUDY    73  70  90 E6        30.27R
SW REGIONAL AP CLOUDY    72  70  93 E7        30.27R
NAPLES         CLOUDY    71  71 100 CALM      30.27R
MIAMI          FAIR      76  70  82 E17       30.27R
WEST KENDALL   FAIR      73  68  84 E10       30.27R
HOMESTEAD      FAIR      75  69  80 E15       30.26R
MARATHON       FAIR      76  68  76 E12G23    30.23R
KEY WEST INTL  FAIR      77  71  82 E20       30.22R

...INTERNATIONAL WEATHER...

CITY           SKY/WX    TMP DP  RH WIND       PRES   REMARKS
NASSAU BAHAMAS MOCLDY    77  72  83 E8        30.28R
CANCUN MEXICO  PTCLDY    77  72  83 E9        30.08R
COZUMEL MEXICO PTCLDY    77  72  83 SE7       30.05R

ADJACENT COASTAL WATERS...

STATION/POSITION TIME  SKY/WX   TEMP    WIND        PRES    WAVE
                                AIR SEA DIR/SP/G            HT/PER
                 (UTC)          (F)     (DEG/KT/KT) (MB)    (FT/S)
PULASKI SHOAL LI 1200            73     110/ 15/ 16 1022.8R
SAND KEY         1150            77                 1023.5R
LONG KEY         1200            76 76  100/ 18/ 20 1023.9
MOLASSES REEF    1200            76 77  110/ 22/ 24 1024.5R
FOWEY ROCKS      1200            76 75  100/ 25/ 26 1025.4R
Buoy 42097       1130               74                N/A     4/ 6

$$




USA.gov is the U.S. government's official web portal to all federal, state and local government web resources and services.